User: anonymous   Login
Location: Unspecified
(0.0000°N, 0.0000°E)
Time: 06:58:27
(UTC+00:00)
Language:

FORMOSAT 3D - Orbit

View from above orbital plane
View from above orbital plane
View from above satellite
View from above satellite

Ground track
Ground track

The orbit data is extracted from the following two-line orbital elements,

1 29050U 06011D   17202.85899761 +.00000155 +00000-0 +43133-4 0  9998
2 29050 072.0164 088.4549 0048474 093.9240 266.7456 14.58528879601527
Epoch (UTC): 21 July 2017 20:36:57
Eccentricity: 0.0048474
inclination: 72.0164°
perigee height: 663 km
apogee height: 732 km
right ascension of ascending node: 88.4549°
argument of perigee: 93.9240°
revolutions per day: 14.58528879
mean anomaly at epoch: 266.7456°
orbit number at epoch: 60152

The dashed part of the orbit path shows where the satellite is in the earth's shadow,  

DLR